Flag for U.S.A. Weather past 2 weeks in Victorville, California, U.S.A.

Now
72 °F

Clear.


Feels Like: 77 °F
Forecast: 60 / 89 °F
Wind: 7 mph from South

Location: George Air Force Base / Victorvi

Current Time: Aug 22, 2014 at 12:07:59 AM

Latest Report: Aug 21, 2014 at 11:35 PM


Visibility: 10 mi

Pressure: 30.03 "Hg

Humidity: 53%

Dew point: 54 °F

Location of VictorvilleLocation

Historic Weather in Victorville — Graph

°F

Victorville temperature yesterday

Maximum temperature yesterday: 90 °F (at 1:35 PM)
Minimum temperature yesterday: 63 °F (at 2:55 AM)
Average temperature yesterday: 76 °F

Past Weeks' High & Low Weather Summary

 TemperatureHumidityPressure
High100 °F (Aug 17, 1:15 PM)73% (Aug 20, 3:15 AM)30.12 "Hg (Aug 20, 3:15 AM)
Low59 °F (Aug 15, 5:55 AM)7% (Aug 9, 2:15 PM)29.82 "Hg (Aug 18, 4:15 PM)
Average81 °F28%29.99 "Hg
* Reported Aug 6 10:15 PM — Aug 21 10:55 PM, Victorville, Weather by CustomWeather, © 2014

Note: Actual official high and low records may vary slightly from our data, if they occured in-between our weather recording intervals... More about our weather records

Advertising

Victorville weather history for previous 24 hours

 ConditionsComfort  
Time TempWeatherWind HumidityBarometerVisibility
10:55 PM
Aug 21
73 °FClear.10 mph50%30.03 "Hg10 mi
10:35 PM73 °FClear.14 mph47%30.03 "Hg10 mi
10:15 PM73 °FClear.13 mph47%30.02 "Hg10 mi
9:55 PM75 °FClear.14 mph44%30.02 "Hg10 mi
9:35 PM75 °FClear.15 mph44%30.02 "Hg10 mi
9:15 PM75 °FClear.13 mph47%30.01 "Hg10 mi
8:55 PM79 °FClear.14 mph39%30.01 "Hg10 mi
8:35 PM79 °FClear.12 mph39%30.00 "Hg10 mi
8:15 PM79 °FSunny.13 mph39%29.99 "Hg10 mi
7:55 PM79 °FSunny.14 mph39%29.98 "Hg10 mi
7:15 PM82 °FPartly sunny.17 mph35%29.97 "Hg10 mi
6:55 PM86 °FSunny.9 mph24%29.95 "Hg10 mi
6:15 PM88 °FSunny.9 mph21%29.95 "Hg10 mi
5:55 PM88 °FSunny.6 mph21%29.95 "Hg10 mi
5:35 PM88 °FSunny.8 mph19%29.95 "Hg10 mi
5:15 PM90 °FSunny.15 mph20%29.95 "Hg10 mi
4:55 PM90 °FSunny.13 mph20%29.95 "Hg10 mi
4:35 PM90 °FSunny.16 mph21%29.94 "Hg10 mi
4:15 PM90 °FSunny.14 mph21%29.95 "Hg10 mi
3:55 PM90 °FSunny.12 mph22%29.96 "Hg10 mi
3:35 PM90 °FSunny.18 mph22%29.96 "Hg10 mi
3:15 PM90 °FScattered clouds.16 mph22%29.97 "Hg10 mi
2:55 PM90 °FScattered clouds.14 mph22%29.97 "Hg10 mi
2:35 PM90 °FScattered clouds.9 mph22%29.98 "Hg10 mi
2:15 PM90 °FScattered clouds.9 mph22%29.98 "Hg10 mi
1:55 PM88 °FScattered clouds.5 mph24%29.99 "Hg10 mi
1:35 PM90 °FScattered clouds.10 mph22%30.00 "Hg10 mi
1:15 PM88 °FScattered clouds.9 mph24%30.00 "Hg10 mi
12:55 PM88 °FScattered clouds.9 mph24%30.01 "Hg10 mi
12:35 PM88 °FScattered clouds.8 mph24%30.01 "Hg10 mi
12:15 PM86 °FScattered clouds.6 mph25%30.01 "Hg10 mi
11:55 AM84 °FScattered clouds.3 mph27%30.02 "Hg10 mi
11:35 AM84 °FScattered clouds.3 mph27%30.03 "Hg10 mi
11:15 AM82 °FScattered clouds.No wind30%30.03 "Hg10 mi
10:55 AM82 °FScattered clouds.6 mph30%30.03 "Hg10 mi
9:55 AM79 °FSunny.5 mph34%30.04 "Hg10 mi
9:35 AM75 °FSunny.No wind41%30.03 "Hg10 mi
9:15 AM75 °FSunny.No wind41%30.03 "Hg10 mi
8:55 AM73 °FSunny.5 mph47%30.03 "Hg10 mi
8:35 AM72 °FSunny.6 mph50%30.03 "Hg10 mi
8:15 AM70 °FScattered clouds.6 mph53%30.03 "Hg10 mi
7:55 AM70 °FScattered clouds.6 mph53%30.02 "Hg10 mi
7:35 AM68 °FSunny.6 mph56%30.02 "Hg10 mi
7:15 AM66 °FSunny.5 mph60%30.01 "Hg10 mi
6:55 AM64 °FClear.6 mph64%30.01 "Hg10 mi
6:35 AM64 °FClear.7 mph64%30.00 "Hg10 mi
6:15 AM64 °FClear.7 mph60%29.99 "Hg10 mi
5:55 AM64 °FClear.6 mph60%29.99 "Hg10 mi
5:35 AM64 °FClear.6 mph60%29.98 "Hg10 mi
5:15 AM64 °FClear.6 mph56%29.98 "Hg10 mi
4:55 AM64 °FClear.5 mph56%29.98 "Hg10 mi
4:35 AM63 °FClear.No wind56%29.98 "Hg10 mi
4:15 AM63 °FClear.No wind56%29.99 "Hg10 mi
3:55 AM63 °FClear.No wind56%29.99 "Hg10 mi
3:35 AM63 °FClear.No wind59%29.99 "Hg10 mi
3:15 AM63 °FClear.No wind59%29.99 "Hg10 mi
2:55 AM63 °FClear.No wind59%29.99 "Hg10 mi
2:35 AM64 °FClear.3 mph56%29.99 "Hg10 mi
2:15 AM64 °FClear.No wind56%29.99 "Hg10 mi
1:55 AM66 °FClear.3 mph49%29.99 "Hg10 mi
1:35 AM66 °FClear.3 mph49%29.99 "Hg7 mi
1:15 AM68 °FClear.3 mph46%30.00 "Hg10 mi
12:55 AM66 °FClear.No wind52%29.99 "Hg10 mi
12:35 AM66 °FClear.5 mph52%29.99 "Hg10 mi
12:15 AM70 °FClear.5 mph53%29.99 "Hg10 mi
Weather by CustomWeather, © 2014

See weather overviewHow to use our weather pages